Temp
68 71 75 76 76 76 76 75 75 75 76 76 76 76 76 76 76 76 76 76 76 76 76 76 76 75 75 75 75 75 74 74 74 74 74 75 75 75 74 73 72 70 75
70 72 73 75 76 76 75 75 75 75 75 76 76 76 76 76 76 76 75 76 76 76 76 75 75 75 74 74 74 74 73 73 72 72 72 73 74 74 74 74 73 72 75
71 73 73 74 75 75 75 74 74 75 75 76 76 76 76 76 76 75 75 75 76 76 75 75 74 74 73 73 73 73 73 72 71 71 71 67 67 74 74 74 73 74 75
73 73 72 72 74 75 74 74 74 75 75 76 76 75 76 76 76 76 75 75 75 75 75 74 74 73 73 73 72 72 72 72 71 70 67 68 70 74 74 74 74 74 74
73 73 72 72 74 74 74 74 74 74 75 75 75 75 75 76 76 75 75 75 75 76 74 73 73 73 73 72 72 72 72 71 69 68 64 65 65 73 73 73 72 71 72
72 72 70 72 74 74 74 74 74 74 74 74 75 75 76 75 75 75 75 75 74 75 74 73 72 72 72 72 71 71 71 70 67 61 62 66 66 73 73 71 71 71 71
69 70 71 72 73 73 74 74 74 74 74 74 74 75 75 75 75 74 74 74 74 74 73 72 71 71 71 71 70 70 69 68 62 60 61 62 64 73 73 71 71 71 72
69 70 70 69 70 72 72 73 73 73 74 74 74 74 75 74 74 74 74 74 74 74 73 72 71 71 70 70 69 69 68 66 63 60 60 61 66 73 73 71 71 71 71
70 69 69 69 68 67 69 70 71 72 72 72 73 73 72 72 72 73 73 73 74 74 73 72 71 71 70 70 69 68 66 66 60 59 63 61 66 73 73 72 71 71 71
69 69 68 67 68 68 67 66 67 69 70 70 70 69 68 68 69 69 68 71 73 73 73 72 70 70 70 70 69 67 65 65 59 59 59 60 68 72 74 73 72 71 71
69 68 67 67 67 67 67 67 64 66 66 67 66 65 64 64 65 66 65 67 71 71 72 71 70 70 68 67 67 66 64 59 58 58 59 64 68 72 74 73 73 72 71
65 67 67 66 67 67 71 68 69 68 67 65 65 65 64 64 63 66 63 64 66 67 70 70 70 68 64 61 60 62 60 60 59 59 59 65 69 72 74 74 73 73 73
65 66 68 67 67 67 68 66 66 68 68 67 66 64 64 66 62 62 61 61 61 61 62 64 63 62 62 60 60 60 60 59 57 59 62 65 69 72 74 74 74 73 73
65 67 69 68 67 66 66 65 65 66 68 67 68 68 67 66 63 65 63 61 60 60 60 59 59 60 60 61 61 60 60 59 58 59 59 61 65 70 73 74 74 74 73
66 66 68 66 66 67 66 65 65 65 65 66 69 69 68 67 66 67 66 65 64 63 61 60 59 60 60 60 61 60 60 60 60 61 60 59 63 68 71 73 74 74 74
68 65 66 67 67 68 66 65 65 65 65 65 65 68 69 68 67 66 66 66 66 66 65 64 64 63 62 62 63 63 62 60 61 61 61 60 62 65 68 71 73 73 74
63 63 64 65 65 65 66 66 65 65 66 65 65 66 67 68 67 67 66 65 66 66 66 65 65 64 63 64 63 64 65 65 64 61 61 61 61 62 64 68 71 72 73
59 58 60 62 60 60 60 62 64 65 64 64 64 69 69 68 68 66 65 65 66 65 65 64 63 63 63 63 63 63 63 64 64 64 64 64 65 65 64 65 67 69 70
55 55 56 57 56 58 59 60 61 63 63 63 64 67 68 68 68 66 65 65 66 64 63 63 63 61 61 61 61 62 62 62 63 65 64 63 64 62 61 62 62 63 66
52 53 54 55 55 55 56 58 59 60 60 61 62 63 64 64 64 64 64 64 64 63 62 62 61 62 61 61 61 61 62 63 61 59 60 61 60 60 59 59 61 60 60
50 50 51 51 52 52 52 54 56 56 57 57 60 58 58 58 58 58 59 58 59 61 60 60 60 60 60 60 58 58 57 58 58 57 58 57 59 59 59 59 59 59 60
46 47 48 49 50 50 50 54 60 55 57 58 56 55 55 54 54 55 55 55 55 55 54 55 55 56 58 59 56 55 51 53 54 57 56 57 57 57 58 58 58 59 58
43 44 46 47 48 48 49 55 61 60 58 56 53 52 51 52 51 51 51 52 52 52 51 52 52 52 52 54 55 55 50 47 53 53 55 54 54 54 55 56 57 57 57
41 43 44 45 46 48 47 50 55 54 51 52 52 51 49 49 48 47 46 46 46 46 45 46 48 47 48 47 50 52 55 53 50 47 50 51 52 53 51 54 54 56 54
42 41 42 43 44 44 44 45 46 48 50 50 49 47 46 45 44 44 44 44 44 44 44 44 44 44 45 45 48 49 48 45 47 45 42 44 48 48 49 48 49 49 48
41 40 41 41 41 42 42 42 42 42 45 44 43 40 40 40 40 41 42 41 42 42 42 43 43 42 42 42 42 42 41 43 43 40 38 39 40 42 47 46 46 43 44
MSLP
1019.45 1019.23 1019.16 1019.24 1019.36 1019.49 1019.60 1019.73 1019.84 1019.85 1019.83 1019.86 1019.95 1019.98 1019.99 1020.01 1020.01 1020.00 1020.04 1020.08 1020.09 1020.11 1020.14 1020.11 1020.10 1020.21 1020.29 1020.34 1020.35 1020.33 1020.38 1020.39 1020.45 1020.48 1020.40 1020.33 1020.33 1020.15 1020.22 1020.40 1020.47 1020.37 1020.17
1018.85 1019.17 1019.18 1019.26 1019.44 1019.58 1019.73 1019.87 1019.99 1020.05 1020.02 1020.04 1020.09 1020.07 1020.10 1020.17 1020.21 1020.21 1020.21 1020.23 1020.20 1020.21 1020.26 1020.31 1020.48 1020.60 1020.79 1020.73 1020.69 1020.65 1020.74 1020.83 1020.86 1020.90 1020.83 1020.72 1020.66 1020.68 1020.55 1020.63 1020.43 1020.35 1020.29
1018.72 1019.08 1019.20 1019.31 1019.49 1019.68 1019.86 1020.00 1020.09 1020.15 1020.19 1020.21 1020.24 1020.20 1020.24 1020.28 1020.32 1020.38 1020.43 1020.36 1020.26 1020.34 1020.45 1020.64 1020.76 1020.79 1020.80 1020.91 1020.94 1021.00 1021.09 1021.16 1021.21 1021.15 1021.03 1020.91 1021.13 1020.87 1020.79 1020.76 1020.79 1020.60 1020.46
1018.59 1018.98 1019.17 1019.33 1019.57 1019.77 1019.93 1020.10 1020.23 1020.28 1020.30 1020.34 1020.36 1020.37 1020.42 1020.41 1020.42 1020.46 1020.51 1020.57 1020.55 1020.56 1020.72 1020.83 1020.88 1020.84 1020.90 1021.02 1021.13 1021.20 1021.18 1021.20 1021.18 1021.07 1021.28 1021.35 1021.27 1021.09 1020.92 1020.98 1020.92 1020.74 1020.90
1018.56 1018.79 1019.05 1019.26 1019.52 1019.75 1019.93 1020.04 1020.15 1020.28 1020.34 1020.38 1020.41 1020.45 1020.47 1020.50 1020.52 1020.58 1020.63 1020.64 1020.65 1020.62 1020.83 1021.00 1021.05 1020.98 1021.00 1021.18 1021.23 1021.31 1021.31 1021.29 1021.24 1021.37 1021.34 1021.34 1021.43 1021.24 1021.25 1021.17 1021.02 1021.03 1021.17
1018.54 1018.77 1019.07 1019.25 1019.48 1019.70 1019.86 1019.97 1020.10 1020.20 1020.31 1020.37 1020.33 1020.37 1020.44 1020.51 1020.54 1020.63 1020.71 1020.75 1020.80 1020.82 1020.95 1021.12 1021.16 1021.12 1021.15 1021.26 1021.36 1021.44 1021.43 1021.44 1021.51 1021.55 1021.50 1021.30 1021.25 1021.09 1021.13 1021.38 1021.40 1021.30 1021.24
1018.70 1018.84 1019.06 1019.25 1019.43 1019.66 1019.85 1019.98 1020.14 1020.27 1020.34 1020.42 1020.41 1020.30 1020.39 1020.50 1020.59 1020.66 1020.68 1020.74 1020.83 1020.91 1021.08 1021.19 1021.23 1021.24 1021.31 1021.38 1021.46 1021.51 1021.52 1021.55 1021.70 1021.82 1021.71 1021.53 1021.26 1021.14 1021.17 1021.13 1021.22 1021.36 1021.36
1018.53 1018.85 1019.06 1019.25 1019.44 1019.65 1019.83 1020.00 1020.15 1020.25 1020.32 1020.41 1020.48 1020.49 1020.51 1020.59 1020.67 1020.75 1020.85 1020.90 1020.89 1020.92 1021.05 1021.21 1021.35 1021.41 1021.40 1021.43 1021.43 1021.45 1021.48 1021.54 1021.60 1021.67 1021.60 1021.52 1021.38 1020.98 1020.93 1021.14 1021.26 1021.22 1021.14
1018.34 1018.71 1019.00 1019.21 1019.38 1019.58 1019.81 1019.93 1020.03 1020.16 1020.27 1020.37 1020.48 1020.57 1020.66 1020.63 1020.66 1020.70 1020.79 1020.87 1020.93 1021.00 1021.07 1021.23 1021.36 1021.49 1021.53 1021.55 1021.58 1021.59 1021.57 1021.53 1021.61 1021.62 1021.52 1021.42 1021.23 1020.87 1020.76 1020.82 1020.99 1021.08 1021.17
1018.32 1018.48 1018.78 1019.03 1019.21 1019.42 1019.65 1019.81 1019.93 1020.05 1020.20 1020.37 1020.47 1020.55 1020.66 1020.78 1020.82 1020.80 1020.78 1020.77 1020.79 1020.90 1020.97 1021.11 1021.27 1021.38 1021.47 1021.50 1021.53 1021.52 1021.52 1021.52 1021.56 1021.52 1021.39 1021.29 1021.05 1020.78 1020.59 1020.66 1020.73 1020.87 1020.92
1018.48 1018.43 1018.53 1018.82 1019.01 1019.20 1019.43 1019.60 1019.82 1019.96 1020.15 1020.32 1020.43 1020.54 1020.66 1020.76 1020.80 1020.84 1020.81 1020.81 1020.76 1020.83 1020.93 1020.99 1021.11 1021.20 1021.32 1021.36 1021.39 1021.38 1021.40 1021.48 1021.49 1021.40 1021.28 1021.02 1020.90 1020.71 1020.43 1020.40 1020.44 1020.48 1020.56
1018.45 1018.27 1018.27 1018.49 1018.68 1018.90 1018.91 1019.13 1019.52 1019.79 1019.98 1020.13 1020.29 1020.42 1020.57 1020.62 1020.70 1020.67 1020.77 1020.79 1020.77 1020.77 1020.78 1020.82 1020.92 1021.03 1021.19 1021.34 1021.37 1021.32 1021.38 1021.27 1021.27 1021.16 1021.05 1020.78 1020.56 1020.45 1020.27 1020.21 1020.21 1020.18 1020.13
1017.99 1018.11 1018.13 1018.23 1018.37 1018.61 1018.62 1018.84 1019.12 1019.38 1019.69 1019.85 1020.05 1020.21 1020.29 1020.32 1020.45 1020.60 1020.74 1020.72 1020.74 1020.76 1020.82 1020.79 1020.87 1020.99 1021.08 1021.21 1021.21 1021.15 1021.10 1021.06 1021.00 1020.82 1020.61 1020.51 1020.38 1020.20 1020.01 1019.85 1019.83 1019.88 1019.88
1017.80 1017.67 1017.72 1017.81 1018.15 1018.32 1018.45 1018.66 1018.70 1019.01 1019.16 1019.50 1019.62 1019.72 1019.96 1020.03 1020.18 1020.19 1020.44 1020.54 1020.66 1020.71 1020.84 1020.86 1020.85 1020.73 1020.78 1020.80 1020.84 1020.80 1020.78 1020.72 1020.62 1020.53 1020.32 1020.12 1020.05 1019.89 1019.69 1019.52 1019.38 1019.30 1019.29
1017.57 1017.54 1017.50 1017.48 1017.77 1017.95 1018.24 1018.36 1018.54 1018.67 1018.72 1018.79 1018.89 1019.13 1019.40 1019.61 1019.67 1019.69 1019.84 1020.01 1020.14 1020.21 1020.39 1020.49 1020.58 1020.58 1020.54 1020.50 1020.41 1020.36 1020.25 1020.19 1020.15 1020.06 1019.90 1019.73 1019.64 1019.48 1019.32 1019.16 1019.02 1018.84 1018.58
1017.31 1017.39 1017.68 1017.65 1017.40 1017.52 1017.84 1018.03 1018.10 1018.14 1018.25 1018.51 1018.61 1018.57 1018.80 1019.10 1019.24 1019.34 1019.49 1019.64 1019.64 1019.69 1019.75 1019.92 1019.94 1019.96 1019.99 1020.00 1019.89 1019.75 1019.67 1019.62 1019.55 1019.45 1019.34 1019.23 1019.10 1018.95 1018.85 1018.76 1018.60 1018.40 1018.15
1017.98 1017.85 1017.92 1017.90 1017.63 1017.59 1017.68 1017.76 1017.90 1017.92 1017.97 1018.08 1018.09 1018.26 1018.36 1018.53 1018.81 1018.95 1019.10 1019.24 1019.28 1019.35 1019.43 1019.57 1019.63 1019.52 1019.54 1019.35 1019.40 1019.19 1019.07 1018.96 1018.83 1018.81 1018.75 1018.70 1018.61 1018.50 1018.35 1018.10 1017.96 1017.80 1017.57
1018.68 1018.69 1018.59 1018.42 1018.23 1018.26 1018.22 1018.05 1017.83 1017.74 1017.84 1017.91 1018.03 1017.81 1017.93 1017.95 1018.18 1018.37 1018.68 1018.79 1018.91 1019.05 1019.10 1019.14 1019.28 1019.30 1019.24 1019.17 1019.03 1018.87 1018.72 1018.58 1018.40 1018.25 1018.12 1018.01 1017.81 1017.56 1017.46 1017.42 1017.37 1017.25 1017.06
1019.43 1019.31 1019.19 1019.01 1018.82 1018.54 1018.14 1017.90 1017.78 1017.70 1017.80 1017.82 1017.84 1017.76 1017.71 1017.73 1017.78 1018.07 1018.31 1018.43 1018.54 1018.79 1018.92 1019.02 1019.02 1019.21 1019.05 1018.84 1018.77 1018.61 1018.44 1018.21 1017.85 1017.60 1017.43 1017.25 1017.22 1017.25 1017.18 1017.13 1017.04 1016.88 1016.68
1019.85 1019.68 1019.53 1019.45 1019.26 1018.92 1018.39 1017.95 1017.78 1018.04 1018.29 1018.29 1018.24 1018.29 1018.33 1018.48 1018.35 1018.39 1018.53 1018.58 1018.60 1018.77 1018.82 1018.89 1018.99 1018.88 1018.83 1018.65 1018.63 1018.43 1018.11 1017.94 1017.71 1017.66 1017.45 1017.31 1017.20 1017.05 1016.98 1016.92 1016.80 1016.60 1016.44
1020.30 1020.17 1020.20 1020.00 1019.77 1019.37 1018.95 1018.68 1018.46 1018.70 1018.95 1018.97 1019.07 1019.25 1019.46 1019.57 1019.53 1019.37 1019.43 1019.24 1019.08 1019.10 1019.22 1019.17 1019.06 1018.93 1018.74 1018.62 1018.72 1018.43 1017.99 1017.49 1017.45 1017.56 1017.45 1017.27 1017.00 1016.84 1016.86 1016.72 1016.58 1016.44 1016.21
1021.23 1021.13 1020.94 1020.63 1020.28 1019.90 1019.53 1019.06 1018.78 1019.07 1019.28 1019.48 1019.95 1020.09 1020.48 1020.43 1020.40 1020.17 1020.14 1020.07 1019.92 1019.86 1019.88 1019.89 1019.71 1019.43 1019.08 1018.93 1018.88 1018.93 1018.61 1017.89 1017.59 1017.32 1017.30 1017.28 1017.12 1016.95 1016.84 1016.68 1016.52 1016.35 1016.24
1021.87 1021.53 1021.40 1021.11 1020.83 1020.54 1019.90 1019.19 1019.00 1019.22 1019.60 1019.98 1020.65 1021.06 1021.34 1021.31 1021.16 1021.04 1020.97 1020.86 1020.61 1020.54 1020.63 1020.53 1020.34 1020.15 1019.89 1019.42 1019.28 1019.15 1019.14 1018.87 1018.30 1017.51 1017.35 1017.37 1017.38 1017.33 1017.05 1016.80 1016.68 1016.58 1016.41
1022.43 1021.74 1021.51 1021.64 1021.46 1021.09 1020.56 1020.16 1019.91 1020.08 1020.42 1021.19 1021.53 1021.90 1022.02 1022.13 1022.00 1021.86 1021.78 1021.64 1021.40 1021.34 1021.19 1021.03 1020.84 1020.63 1020.39 1020.40 1019.75 1019.65 1019.70 1019.76 1019.62 1018.75 1017.94 1017.69 1017.90 1017.78 1017.56 1017.36 1017.28 1017.07 1017.38
1022.28 1022.10 1022.10 1022.12 1022.08 1021.90 1021.51 1021.25 1021.18 1021.32 1021.53 1021.82 1022.20 1022.38 1022.66 1022.76 1022.67 1022.63 1022.46 1022.19 1022.02 1021.92 1021.79 1021.59 1021.34 1021.19 1021.11 1021.10 1020.94 1020.83 1020.46 1020.31 1020.64 1020.72 1019.74 1018.95 1018.53 1018.17 1018.15 1018.11 1017.90 1018.25 1018.38
1022.39 1022.67 1022.77 1022.76 1022.85 1022.64 1022.27 1022.10 1022.11 1022.20 1022.37 1022.61 1022.87 1023.02 1023.27 1023.39 1023.43 1023.30 1023.03 1022.81 1022.63 1022.45 1022.28 1022.12 1022.03 1021.98 1021.90 1021.83 1021.84 1021.82 1021.74 1021.61 1021.76 1021.70 1021.41 1020.70 1020.23 1019.11 1018.63 1018.56 1018.68 1019.06 1018.96
Wind_Speed
2 4 10 11 11 10 10 10 9 9 9 10 10 10 11 11 12 11 11 11 11 11 13 14 13 13 13 13 13 13 13 12 11 10 10 9 9 9 12 11 8 4 8
9 6 10 10 11 10 10 10 9 8 8 9 8 8 10 10 10 10 10 9 8 10 11 12 11 10 10 10 11 11 11 10 9 7 7 8 8 8 9 9 7 6 11
10 7 8 10 10 10 10 9 8 8 7 8 8 8 10 10 10 10 9 8 9 10 11 10 9 8 7 8 8 9 10 9 7 2 6 4 2 6 6 6 6 6 8
11 8 7 10 10 10 9 8 8 7 7 7 7 7 8 9 10 10 10 7 5 12 10 9 7 3 6 7 7 6 7 8 8 5 3 1 0 5 6 4 6 6 6
9 9 8 12 10 10 9 8 7 7 6 5 5 7 8 7 10 10 9 8 7 8 9 7 6 7 10 8 6 4 5 7 9 6 2 4 1 2 4 2 4 3 2
8 8 9 12 11 11 9 8 8 7 6 5 5 6 6 6 10 10 9 8 7 7 8 5 5 7 8 6 5 2 5 7 7 5 3 5 4 4 4 2 1 1 1
6 6 8 11 11 10 10 9 8 6 5 5 4 8 6 6 8 9 9 9 8 7 7 5 5 5 5 4 2 1 3 5 4 3 4 3 4 5 5 5 5 3 3
10 6 6 9 10 9 9 8 7 6 6 6 5 5 5 6 7 7 8 8 8 8 8 7 5 5 5 4 4 2 2 3 3 3 3 3 7 7 5 5 5 7 4
7 7 6 6 7 9 8 8 8 7 6 6 5 5 3 5 4 7 8 8 8 8 8 7 6 5 5 5 5 5 5 6 4 3 4 3 9 9 7 7 8 9 9
7 8 8 7 7 6 6 9 8 7 7 6 6 6 5 4 4 4 6 7 9 9 9 8 8 8 7 7 7 7 7 8 5 5 4 4 10 13 10 10 10 10 10
5 7 7 7 7 7 6 6 8 8 7 6 5 6 5 3 4 5 6 6 8 9 8 9 9 8 8 8 8 9 7 3 4 4 3 8 11 15 13 12 12 13 13
7 6 7 7 8 7 6 6 7 6 5 5 5 5 4 5 5 5 6 8 8 9 9 8 9 9 7 3 3 5 3 5 4 4 4 12 12 15 15 15 15 15 16
6 2 6 7 7 7 6 4 3 3 3 3 5 5 5 4 4 3 2 3 4 6 3 4 4 3 5 4 4 4 4 4 3 4 5 11 12 14 17 18 18 17 17
7 8 8 8 7 7 4 4 4 4 4 4 5 6 4 3 4 4 3 4 4 3 5 4 3 5 5 5 6 6 5 4 3 3 5 11 13 16 18 19 20 19 19
6 5 5 7 7 6 6 4 4 5 4 5 6 6 5 4 4 4 4 4 4 4 4 4 4 4 5 5 5 6 6 6 6 4 4 10 13 15 18 20 21 22 22
5 3 2 1 5 6 6 6 5 4 5 4 4 6 6 4 4 4 3 4 4 4 4 4 5 4 5 4 6 6 7 6 6 6 4 5 12 15 18 21 22 23 24
5 5 7 6 6 4 3 4 4 4 4 4 5 6 6 6 5 5 4 4 4 3 4 4 4 4 4 4 6 5 5 7 6 6 6 4 5 11 15 21 22 23 25
6 7 6 6 6 6 5 4 3 3 4 4 4 5 8 7 7 5 4 4 3 3 3 3 3 4 5 4 4 5 5 5 7 7 6 6 6 7 9 14 18 21 24
6 6 7 7 8 7 6 4 3 2 1 2 3 2 4 5 5 4 3 3 3 2 1 2 2 3 4 4 4 4 4 5 7 7 9 8 7 5 5 8 12 15 18
6 7 7 6 8 7 4 4 2 4 4 5 5 6 10 7 8 2 3 3 2 2 3 2 3 2 4 3 3 4 6 5 5 4 6 5 5 6 5 6 6 6 11
8 9 8 8 8 6 3 3 3 3 3 5 8 11 11 9 10 8 5 5 6 4 5 5 2 3 2 1 2 3 4 5 6 3 4 5 6 5 5 5 4 4 6
6 7 7 7 7 6 3 2 1 3 5 7 7 11 10 10 9 8 7 6 7 5 7 6 5 3 2 3 1 2 4 4 2 3 3 4 6 4 5 6 5 5 5
6 6 6 7 7 6 7 2 5 4 4 5 6 6 8 9 9 9 9 6 6 5 4 5 4 4 2 2 4 1 3 3 5 2 3 1 5 4 5 6 7 6 7
3 6 7 7 8 8 9 6 7 4 4 4 6 6 7 9 9 9 8 6 6 4 5 4 4 3 3 3 2 4 1 2 3 5 2 3 7 8 6 7 7 9 14
5 6 6 7 7 7 8 6 5 7 6 4 5 7 8 7 9 8 7 7 6 4 5 5 5 6 4 3 4 3 4 3 3 2 4 5 5 3 5 6 5 9 10
6 6 6 7 6 7 7 8 8 7 6 5 5 5 4 4 5 7 6 5 5 5 5 5 6 8 5 5 4 4 4 3 4 3 3 4 5 4 6 4 7 7 8
Wind_Direction
170 160 141 134 130 120 115 112 109 106 102 103 99 103 101 101 98 92 87 83 81 73 68 65 69 75 79 82 79 74 73 77 81 81 84 81 79 94 93 86 62 22 110
143 158 146 142 138 129 125 123 120 114 113 113 103 131 121 113 104 99 95 94 90 86 81 77 72 76 77 73 74 77 77 78 81 77 66 73 79 75 99 92 82 75 101
143 153 150 144 144 140 135 132 129 128 127 121 113 112 119 118 113 103 96 94 105 100 93 79 71 69 100 94 80 68 62 54 41 59 97 71 73 95 91 88 78 66 89
150 156 153 149 149 150 145 141 137 135 131 126 128 133 133 130 129 120 113 107 103 103 88 79 64 69 130 112 98 66 59 50 30 39 166 138 209 105 104 105 91 73 54
157 157 159 155 155 158 156 154 154 144 145 144 142 151 163 163 151 137 134 120 105 92 90 82 68 71 134 127 107 66 48 42 31 70 129 156 133 98 102 80 84 28 124
152 154 161 159 159 165 166 168 168 164 162 169 170 188 175 203 168 149 147 140 126 125 112 93 90 86 119 120 115 46 20 21 37 20 4 173 156 168 157 149 142 284 282
146 155 162 163 162 166 173 176 177 177 177 177 186 180 178 153 166 164 163 158 154 149 140 138 142 131 120 124 125 58 5 355 17 1 353 233 185 188 190 189 201 242 240
152 160 162 165 166 169 174 178 183 187 184 180 174 154 174 179 183 188 188 183 174 167 166 162 168 176 179 188 193 213 273 312 343 327 331 240 247 204 209 204 229 221 236
153 158 166 170 173 176 182 188 193 195 191 186 181 168 173 191 201 212 202 204 202 191 186 190 186 201 213 224 236 246 260 273 285 282 284 255 247 236 232 220 219 231 236
169 170 175 178 176 180 184 195 198 199 202 199 200 199 198 220 241 232 210 217 213 210 199 203 204 215 225 231 235 247 259 273 278 283 272 256 251 242 244 237 228 235 243
192 187 176 181 186 184 188 202 201 199 200 210 216 219 221 225 246 257 242 236 230 216 219 206 213 220 233 244 249 255 262 262 266 266 275 268 265 248 252 246 240 235 237
216 213 187 185 190 187 193 188 190 187 194 201 211 218 219 226 238 237 243 242 244 235 243 231 230 232 236 245 268 282 265 260 253 257 262 264 270 251 259 259 257 256 249
216 220 204 196 195 194 198 174 172 176 188 203 209 215 225 225 231 235 249 266 237 242 248 262 271 256 247 239 247 251 256 259 251 250 255 267 267 259 266 269 264 262 262
198 222 212 198 196 207 194 185 184 177 182 187 204 204 208 218 234 213 210 222 223 224 243 245 249 250 254 252 247 257 255 252 246 248 252 257 262 265 271 272 271 269 265
207 170 205 199 201 204 200 201 193 200 190 199 188 200 197 208 215 225 209 196 210 207 217 234 235 246 249 253 250 247 257 251 246 244 245 244 254 263 268 271 273 274 273
224 209 89 175 223 195 203 210 207 198 202 196 212 199 197 202 216 227 226 226 224 213 218 224 228 231 236 229 240 239 242 241 247 253 252 251 252 259 264 268 271 274 275
38 79 52 57 35 38 256 237 225 223 214 213 204 205 196 188 213 219 222 229 235 239 237 230 242 236 239 238 242 248 259 264 259 253 252 245 258 262 259 261 265 270 273
66 51 35 32 38 36 10 326 290 251 227 227 227 208 203 196 208 209 208 213 225 248 247 246 241 254 248 231 244 243 248 255 263 259 254 243 244 247 260 256 258 264 272
59 51 39 29 15 357 345 339 317 304 323 286 241 241 236 229 208 192 212 220 206 232 286 280 250 227 261 262 248 256 247 246 251 254 246 245 259 261 258 271 263 262 265
47 45 41 27 14 351 330 333 360 66 44 36 37 52 45 38 30 13 354 336 306 284 294 290 275 238 245 261 272 272 273 275 272 254 260 277 278 267 268 263 277 276 268
40 42 30 24 3 8 355 355 22 60 61 54 54 48 45 40 39 35 33 28 18 35 41 30 321 296 285 293 299 312 270 252 261 280 270 269 278 285 280 273 269 272 284
47 40 31 23 8 359 344 321 56 111 76 77 66 56 42 43 36 45 33 36 33 42 34 27 18 331 322 13 350 270 310 327 337 274 281 287 291 322 315 300 294 287 283
50 45 40 24 12 5 346 337 105 89 71 64 53 56 40 42 42 39 38 33 42 39 38 28 10 21 323 332 360 108 326 271 337 317 309 340 25 355 326 336 335 336 331
59 58 49 32 20 18 4 26 59 80 98 61 76 76 58 40 41 35 35 31 41 33 40 25 26 24 27 23 324 28 324 49 309 316 322 10 5 342 339 343 348 4 32
71 61 54 48 34 18 29 35 52 84 83 82 75 79 64 44 37 28 27 28 34 27 29 40 34 35 35 50 25 351 1 1 42 309 302 327 340 347 340 330 1 42 29
66 63 58 56 38 30 41 43 57 67 77 79 64 66 51 45 31 24 23 26 28 28 29 33 40 43 45 52 47 45 42 18 16 356 332 325 304 303 326 1 57 38 22